Regional Weather Roundup
Issued by NWS

Home | Current Version | Previous Version | Graphics & Text | Print | Product List | Glossary On
Versions: 1 2 3 4 5 6 7 8 9 10 11 12 13 14 15 16 17 18 19 20 21 22 23 24 25 26 27 28 29 30 31 32 33 34 35 36 37 38 39 40 41 42 43 44 45 46 47 48 49 50
000
ASUS43 KLOT 160808
RWRIL

ILLINOIS REGIONAL WEATHER ROUNDUP
NATIONAL WEATHER SERVICE CHICAGO/ROMEOVILLE IL
300 AM CDT WED AUG 16 2017

NOTE: "FAIR" INDICATES FEW OR NO CLOUDS BELOW 12,000 FEET WITH NO
SIGNIFICANT WEATHER AND/OR OBSTRUCTIONS TO VISIBILITY.

* THESE STATIONS ARE NOT UNDER NWS QUALITY CONTROL. THEY ALSO MAY NOT
  REPORT WEATHER SUCH AS PRECIPITATION OR FOG.

ILZ001-002-007-009-015-016-024-160900-
NORTHWEST ILLINOIS

CITY           SKY/WX    TMP DP  RH WIND       PRES   REMARKS
MOLINE         CLOUDY    70  65  84 E9        29.94S
STERLING*      PTCLDY    62  62 100 E6        29.96F
SAVANNA*       PTCLDY    64  60  88 N6        29.98R
$$

ILZ003-004-008-010-011-017-018-160900-
NORTH CENTRAL ILLINOIS

CITY           SKY/WX    TMP DP  RH WIND       PRES   REMARKS
ROCKFORD       CLEAR     65  61  87 E5        30.00S
FREEPORT*      CLEAR     58  57  98 NE5       30.01S FOG
ROCHELLE*      CLEAR     62  61  97 E3        29.99S
DE KALB*       CLEAR     63  61  96 E8        29.99F
PERU*          PTCLDY    64  62  91 E7        29.98S
$$

ILZ005-006-012>014-019>023-160900-
NORTHEAST ILLINOIS

CITY           SKY/WX    TMP DP  RH WIND       PRES   REMARKS
CHICAGO-OHARE  PTCLDY    68  62  81 NE5       29.98F
CHICAGO-MIDWAY PTCLDY    71  64  78 E6        29.98F
AURORA         CLEAR     63  61  93 NE3       29.99S
LANSING*       CLEAR     66  62  84 CALM      29.99S
JOLIET*        MOCLDY    67  65  93 CALM      29.98S
WAUKEGAN       CLEAR     59  59 100 CALM      29.99F
DUPAGE AIRPORT CLEAR     62  62 100 N5        29.98F
KANKAKEE*      CLEAR     64  64 100 E3        29.99S
WHEELING       CLEAR     64  64 100 CALM      30.00F
MORRIS*        PTCLDY    63  61  95 CALM      29.97S FOG
ROMEOVILLE*    CLEAR     66  62  87 E7        29.98F
NORTHERLY ISL    N/A     71  63  75 NE8         N/A
$$

LMZ740>746-160900-
SOUTHERN LAKE MICHIGAN

STATION/POSITION SKY/WX   TEMP    WIND        PRES    VSBY  WAVE
                          AIR SEA DIR/SP/G                  HT/PER
                          (F)     (DEG/KT/KT) (MB)    (MI)  (FT/S)
SOUTHERN BUOY              70 71   50/  6/  6 1015.7F         2/ 5
WILMETTE HARBOR            71 72   60/  6/  8   N/A           2/ 5
HARRISON CRIB              72      60/  8/  9   N/A
CALUMET HARBOR             71      50/  6/  8 1014.9F
BURNS HARBOR               70      70/  5/  6 1015.9S
MICHIGAN CITY              68      70/  4/  5   N/A
MICHIGAN CITY 6N           71 74   90/  6/  8   N/A           3/ 5
ST. JOSEPH                 69 73  110/  4/  4 1015.3          2/ 5
$$

ILZ025>027-034>036-040-047-049-050-058-095>099-160900-
WEST-CENTRAL ILLINOIS

CITY           SKY/WX    TMP DP  RH WIND       PRES   REMARKS
QUINCY         CLEAR     73  68  84 SE9       29.90F
GALESBURG*     CLEAR     69  66  91 E5        29.95S
MACOMB*        PTCLDY    69  68  98 E5        29.95S
JACKSONVILLE*  CLOUDY    69  68  94 SE5       29.92F
PITTSFIELD*    PTCLDY    68  67  98 CALM      29.93S FOG
$$

ILZ028>032-037-038-041>044-048-051>054-059>061-160900-
CENTRAL ILLINOIS

CITY           SKY/WX    TMP DP  RH WIND       PRES   REMARKS
PONTIAC        CLEAR     64  64  98 CALM      29.98S FOG
BLOOMINGTON    MOCLDY    66  65  96 E3        29.97S FOG
DECATUR        CLEAR     68  65  90 S3        29.95F
PEORIA         CLEAR     71  69  93 E8        29.94S
LACON*         MOCLDY    67  66  97 CALM      29.96S
LINCOLN*       CLEAR     68  68 100 CALM      29.94S
SPRINGFIELD    PTCLDY    71  70  96 SE5       29.94F
TAYLORVILLE    PTCLDY    68  68  99 CALM      29.95S
$$

ILZ033-039-045-046-055>057-062-063-160900-
EAST-CENTRAL ILLINOIS

CITY           SKY/WX    TMP DP  RH WIND       PRES   REMARKS
CHAMPAIGN      PTCLDY    69  67  93 E7        29.97S
RANTOUL*       CLEAR     71  69  93 CALM      29.97S
MATTOON        CLEAR     70  70 100 CALM      29.96R
PARIS*         CLEAR     65  65 100 CALM      29.98S FOG
$$

ILZ079-100>102-160900-
SOUTHWEST ILLINOIS

CITY           SKY/WX    TMP DP  RH WIND       PRES   REMARKS
ALTON          CLEAR     69  69 100 CALM      29.94R
BELLEVILLE     CLOUDY    73  71  94 CALM      29.95R
CAHOKIA*       CLEAR     74  71  91 CALM      29.93R
SPARTA*        PTCLDY    72  72 100 SE5       29.94S
$$

ILZ064>066-069>071-074>076-080>082-084>086-088>090-092>094-160900-
SOUTH-CENTRAL ILLINOIS

CITY           SKY/WX    TMP DP  RH WIND       PRES   REMARKS
CARBONDALE     MOCLDY    70  70 100 CALM      29.94R FOG
CAIRO*         CLOUDY    70  70 100 CALM      29.94R
EFFINGHAM*     CLEAR     68  68 100 CALM      29.97S FOG
MARION         FOG       70  70 100 CALM      29.95R VSB 3/4
MT. VERNON     CLEAR     65  64  97 CALM      29.95R FOG
CENTRALIA*     PTCLDY    69  69  99 CALM      29.95R FOG
SALEM*         CLEAR     69  67  93 CALM      29.96R
METROPOLIS*    CLOUDY    70  69  98 CALM      29.95R FOG
$$

ILZ067-068-072-073-078-083-087-091-160900-
SOUTHEAST ILLINOIS

CITY           SKY/WX    TMP DP  RH WIND       PRES   REMARKS
LAWRENCEVILLE  PTCLDY    71  69  93 CALM      29.96R
FLORA*         PTCLDY    70  68  96 CALM      29.96R FOG
FAIRFIELD*     PTCLDY    68  67  99 CALM      29.94R
HARRISBURG*    CLOUDY    69  68  98 CALM      29.94S FOG
ROBINSON*      CLOUDY    63  63  99 CALM      29.96S FOG
CARMI*           N/A     67  67 100 CALM      29.94S FOG
$$

ABBREVIATIONS USED IN REMARKS
   TC - TEMPERATURE IN CELSIUS
  WCI - WIND CHILL INDEX
   HX - HEAT INDEX
  VSB - VISIBILITY
$$





USA.gov is the U.S. government's official web portal to all federal, state and local government web resources and services.